Seattle Boeing, WA
on Wednesday, December 26, 2012

Wednesday
Previous Day Next Day
Daily Summary
 ActualAverage (KSEA)Record (KSEA)
Temperature
Mean Temperature °F 40°F  
Max Temperature 46°F 45°F 62°F (1980)
Min Temperature 39°F 36°F 22°F (1948)
Degree Days
Heating Degree Days 22 25  
Month to date heating degree days 635  
Since 1 July heating degree days 1818  
Cooling Degree Days 0 0  
Month to date cooling degree days 0  
Year to date cooling degree days 189  
Moisture
Dew Point 37°F   
Average Humidity 79    
Maximum Humidity 85    
Minimum Humidity 73    
Precipitation
Precipitation 0.25 in 0.17 in 2.14 in (1974)
Month to date precipitation 4.54  
Year to date precipitation 36.68  
Snow
Snow 0.00 in in 8.80 in (1974)
Month to date snowfall  
Since 1 July snowfall  
Snow Depth in   
Wind
Wind Speed 6 mph   
Max Wind Speed 17 mph   
Max Gust Speed 24 mph   
Visibility 10 miles   
Events Rain   

Key: T is trace of precipitation, MM is missing value
Source: NWS Daily Summary
Time(PST)TemperatureDew PointHumidity Pressure Visibility Wind DirectionWind SpeedGust SpeedPrecipitationEvents Conditions
12:53 AM 42.1°F 34.0°F 73% 29.70 in 10.0 miles Calm Calm - 0.00 in   Overcast
1:53 AM 42.1°F 35.1°F 76% 29.71 in 10.0 miles Calm Calm - 0.00 in   Overcast
2:53 AM 42.1°F 34.0°F 73% 29.71 in 8.0 miles Calm Calm - 0.01 in Rain Light Rain
3:53 AM 41.0°F 36.0°F 82% 29.73 in 10.0 miles Calm Calm - 0.02 in Rain Light Rain
4:53 AM 41.0°F 34.0°F 76% 29.73 in 10.0 miles East 9.2 mph - 0.10 in Rain Light Rain
5:53 AM 39.9°F 35.1°F 83% 29.73 in 10.0 miles ESE 11.5 mph - 0.01 in Rain Light Rain
6:45 AM 41.0°F 35.6°F 81% 29.74 in 10.0 miles SE 8.1 mph - 0.00 in   Overcast
6:53 AM 41.0°F 35.1°F 79% 29.74 in 10.0 miles ESE 5.8 mph - 0.00 in   Overcast
7:53 AM 41.0°F 35.1°F 79% 29.75 in 10.0 miles SE 5.8 mph - 0.00 in Rain Light Rain
8:53 AM 41.0°F 36.0°F 82% 29.77 in 10.0 miles SSE 6.9 mph - 0.00 in   Overcast
9:02 AM 41.0°F 35.6°F 81% 29.77 in 10.0 miles SSE 6.9 mph - N/A   Overcast
9:09 AM 41.0°F 35.6°F 81% 29.77 in 10.0 miles South 8.1 mph - N/A   Overcast
9:53 AM 42.1°F 37.0°F 82% 29.79 in 10.0 miles SSE 6.9 mph - N/A   Mostly Cloudy
10:53 AM 43.0°F 37.0°F 80% 29.79 in 10.0 miles SE 5.8 mph - N/A   Overcast
11:53 AM 45.0°F 37.9°F 76% 29.79 in 10.0 miles SE 8.1 mph - N/A   Overcast
12:53 PM 46.0°F 39.9°F 79% 29.78 in 10.0 miles SE 9.2 mph - N/A   Overcast
1:53 PM 46.0°F 41.0°F 83% 29.79 in 10.0 miles SSE 9.2 mph - 0.01 in Rain Light Rain
2:53 PM 46.0°F 39.9°F 79% 29.80 in 8.0 miles South 8.1 mph - 0.01 in Rain Light Rain
3:53 PM 46.0°F 39.0°F 76% 29.81 in 10.0 miles South 9.2 mph 23.0 mph 0.00 in Rain Light Rain
4:53 PM 45.0°F 39.0°F 80% 29.81 in 10.0 miles SSE 11.5 mph - 0.02 in Rain Light Rain
5:34 PM 44.6°F 39.2°F 81% 29.82 in 10.0 miles SSE 12.7 mph - 0.00 in Rain Light Rain
5:53 PM 45.0°F 37.9°F 76% 29.82 in 10.0 miles South 15.0 mph - 0.00 in   Overcast
6:53 PM 45.0°F 37.9°F 76% 29.83 in 10.0 miles SSE 15.0 mph 21.9 mph 0.00 in Rain Light Rain
7:53 PM 45.0°F 37.9°F 76% 29.83 in 10.0 miles South 13.8 mph 24.2 mph 0.01 in   Overcast
8:53 PM 45.0°F 37.9°F 76% 29.85 in 10.0 miles South 17.3 mph - N/A   Overcast
9:53 PM 45.0°F 39.0°F 80% 29.88 in 10.0 miles South 12.7 mph 19.6 mph N/A   Overcast
10:53 PM 45.0°F 37.9°F 76% 29.90 in 10.0 miles South 8.1 mph - N/A   Overcast
11:53 PM 44.1°F 39.9°F 85% 29.92 in 4.0 miles South 5.8 mph - 0.06 in Rain Light Rain
Moon Phase
Dec. 26 Dec. 28 Jan. 04 Jan. 11 Jan. 18
Sunrise:07:56 AM (PST) Moon Rise:03:23 PM (PST)12/26
Sunset:04:23 PM (PST) Moon Set:06:22 AM (PST)12/26

Copyright © 2014 The Weather Underground, Inc.